This demonstration page uses our WeatherBlox Daily Observations layout. Learn more.

Left ArrowRight Arrow

44.89941, -97.11507

Hourly Observations for October 22, 2021

Temp ( °F °C ) Dew Point ( °F °C ) Humidity (%) Winds ( mph kmh ) Pressure ( in mb ) Visibility ( mi km ) Precip ( " mm )
12:53 am 00:53 Cloudy 37 2.8 33 0.6 86 86 N N/A 30.17 1022 10 16 N/A
1:53 am 01:53 Cloudy 37 2.8 34 1.1 89 89 N N/A 30.16 1021 10 16 N/A
2:53 am 02:53 Cloudy 36 2.2 35 1.7 97 97 N N/A 30.15 1021 10 16 N/A
3:53 am 03:53 Clear 36 2.2 33 0.6 89 89 N N/A 30.13 1020 10 16 N/A
4:53 am 04:53 Clear 33 0.6 32 undefined 96 96 N N/A 30.13 1020 10 16 N/A
5:53 am 05:53 Mostly Cloudy 33 0.6 32 undefined 96 96 NNW 3 6 30.14 1021 10 16 N/A
6:53 am 06:53 Cloudy 32 undefined 32 undefined 100 100 N N/A 30.13 1020 10 16 N/A
7:53 am 07:53 Cloudy 34 1.1 33 0.6 97 97 ENE 3 6 30.13 1020 10 16 N/A
8:53 am 08:53 Cloudy 35 1.7 32 undefined 89 89 ENE 3 6 30.14 1021 10 16 N/A
9:53 am 09:53 Mostly Cloudy 39 3.9 30 -1.1 70 70 E 6 9 30.13 1020 10 16 N/A
10:53 am 10:53 Sunny 42 5.6 29 -1.7 60 60 VRB 7 11 30.13 1020 10 16 N/A
11:53 am 11:53 Sunny 44 6.7 28 -2.2 53 53 ESE 6 9 30.12 1020 10 16 N/A
12:53 pm 12:53 Mostly Cloudy 45 7.2 25 -3.9 46 46 undefined N/A 30.11 1020 10 16 N/A
1:53 pm 13:53 Sunny 47 8.3 23 -5 39 39 E 5 7 30.08 1019 10 16 N/A
2:53 pm 14:53 Sunny 47 8.3 27 -2.8 46 46 ESE 8 13 30.06 1018 10 16 N/A
3:53 pm 15:53 Mostly Cloudy 47 8.3 28 -2.2 48 48 ENE 5 7 30.05 1018 10 16 N/A
4:53 pm 16:53 Partly Cloudy 47 8.3 29 -1.7 50 50 ENE 7 11 30.07 1018 10 16 N/A
5:53 pm 17:53 Mostly Sunny 45 7.2 30 -1.1 56 56 NE 8 13 30.08 1019 10 16 N/A
6:53 pm 18:53 Clear 39 3.9 31 -0.6 73 73 NE 6 9 30.08 1019 10 16 N/A
7:53 pm 19:53 Clear 36 2.2 30 -1.1 79 79 NE 6 9 30.10 1019 10 16 N/A
8:53 pm 20:53 Clear 33 0.6 28 -2.2 82 82 NE 6 9 30.10 1019 10 16 N/A
9:53 pm 21:53 Cloudy 39 3.9 30 -1.1 70 70 ENE 7 11 30.09 1019 10 16 N/A
10:53 pm 22:53 Cloudy 39 3.9 29 -1.7 67 67 ENE 6 9 30.08 1019 10 16 N/A
11:53 pm 23:53 Cloudy 37 2.8 30 -1.1 76 76 NNE 5 7 30.09 1019 10 16 N/A

Powered by AerisWeather